This demonstration page uses our WeatherBlox Daily Observations layout. Learn more.

39.92423, -83.80882

Hourly Observations for July 1, 2018

Temp ( °F °C ) Dew Point ( °F °C ) Humidity (%) Winds ( mph kmh ) Pressure ( in mb ) Visibility ( mi km ) Precip ( " mm )
12:56 am 00:56 Clear 75 23.9 68 20 79 79 SSE 6 9 30.02 1017 10 16.0934 0 0
1:56 am 01:56 Clear 74 23.3 67 19.4 79 79 SSE 6 9 30.03 1017 10 16.0934 0 0
2:56 am 02:56 Clear 67 19.4 65 18.3 93 93 E 3 6 30.03 1017 10 16.0934 0 0
3:56 am 03:56 Clear 68 20 66 18.9 93 93 Calm 30.02 1017 10 16.0934 0 0
4:56 am 04:56 Clear 68 20 66 18.9 93 93 SSE 6 9 30.02 1017 10 16.0934 0 0
5:56 am 05:56 Clear 68 20 66 18.9 93 93 SSE 7 11 30.02 1017 10 16.0934 0 0
6:56 am 06:56 Sunny 69 20.6 66 18.9 90 90 SE 3 6 30.03 1017 10 16.0934 0 0
7:56 am 07:56 Sunny 76 24.4 70 21.1 82 82 S 3 6 30.04 1017 10 16.0934 0 0
8:56 am 08:56 Sunny 81 27.2 72 22.2 74 74 undefined N/A 30.03 1017 10 16.0934 0 0
9:56 am 09:56 Sunny 84 28.9 74 23.3 72 72 Calm 30.03 1017 10 16.0934 0 0
10:56 am 10:56 Sunny 86 30 75 23.9 70 70 S 7 11 30.02 1017 10 16.0934 0 0
11:56 am 11:56 Sunny 88 31.1 75 23.9 66 66 SW 12 19 30.02 1017 10 16.0934 0 0
12:56 pm 12:56 Sunny 89 31.7 74 23.3 61 61 SW 10 17 30.02 1017 10 16.0934 0 0
1:56 pm 13:56 Sunny 90 32.2 75 23.9 62 62 SSW 8 13 29.99 1016 10 16.0934 0 0
2:56 pm 14:56 Sunny 91 32.8 73 22.8 56 56 SW 9 15 29.98 1015 10 16.0934 0 0
3:56 pm 15:56 Sunny 90 32.2 74 23.3 59 59 SSW 6 9 29.96 1015 10 16.0934 0 0
4:56 pm 16:56 Sunny 91 32.8 72 22.2 54 54 S 10 17 29.95 1014 10 16.0934 0 0
5:56 pm 17:56 Sunny 84 28.9 71 21.7 65 65 SSW 8 13 29.96 1015 10 16.0934 0 0
6:56 pm 18:56 Sunny 84 28.9 71 21.7 65 65 S 8 13 29.97 1015 10 16.0934 0 0
7:56 pm 19:56 Sunny 83 28.3 71 21.7 67 67 S 8 13 29.96 1015 10 16.0934 0 0
8:56 pm 20:56 Sunny 80 26.7 71 21.7 74 74 Calm 29.97 1015 10 16.0934 0 0
9:56 pm 21:56 Clear 78 25.6 71 21.7 79 79 SSE 9 15 29.99 1016 10 16.0934 0 0
10:56 pm 22:56 Clear 77 25 71 21.7 82 82 S 6 9 30 1016 10 16.0934 0 0
11:56 pm 23:56 Clear 76 24.4 70 21.1 82 82 S 5 7 30.01 1016 10 16.0934 0 0

Powered by AerisWeather